Tracking 17558 objects as of 14-February-2016
HD Live streaming from Space Station
objects crossing your sky now

INTELSAT 605

Track INTELSAT 605 now!
INTELSAT 605 is classified as:


NORAD ID: 21653
Int'l Code: 1991-055A
Perigee: 36,044.2 km
Apogee: 36,077.3 km
Inclination: 9.4 °
Period: 1,449.8 minutes
Semi major axis: 42431 km
RCS: 0.754 m2 (medium)
Launch date: August 14, 1991
Source: International Telecommunications Satellite Organization (ITSO)
Launch site: FRENCH GUIANA (FRGUI)

Inclined orbit; 64 C-band, 24 Ku-band; Broadcasting, business services, direct-to-home TV broadcasting, telecommunications, VSAT networks; Atlantic Ocean region.
Your satellite tracking list
Your tracking list is empty





NASA's NSSDC Master Catalog

Two Line Element Set (TLE):
1 21653U 91055A   16043.21702366 -.00000051 +00000-0 +00000-0 0  9995
2 21653 009.4359 045.4555 0003895 198.6463 355.3368 00.9932673108943
Source of the keplerian elements: AFSPC

N2YO: 485